| time (UTC) | temp F | wind direction | speed knots | gust knots | rain 1hr in | rain 24hr in | rain mn in | humidity % | barometer mb |
| 20260902231353 | 92 | 293 | 0.9 | 2.6 | 0.00 | 0.00 | 0.00 | 61 | 1017.0 |
| 20260902230853 | 92 | 0 | 1.7 | 3.5 | 0.00 | 0.00 | 0.00 | 59 | 1017.0 |
| 20260902230353 | 92 | 256 | 1.7 | 3.5 | 0.00 | 0.00 | 0.00 | 60 | 1017.0 |
| 20260902225852 | 93 | 273 | 1.7 | 4.3 | 0.00 | 0.00 | 0.00 | 58 | 1017.0 |
| 20260902225840 | 94 | 303 | 1.7 | 4.3 | 0.00 | 0.00 | 0.00 | 58 | 1017.0 |
| 20260902225112 | 94 | 292 | 1.7 | 4.3 | 0.00 | 0.00 | 0.00 | 56 | 1017.2 |
| 20260902224613 | 94 | 283 | 1.7 | 4.3 | 0.00 | 0.00 | 0.00 | 57 | 1017.2 |
| 20260902223853 | 94 | 289 | 1.7 | 4.3 | 0.00 | 0.00 | 0.00 | 57 | 1017.3 |
| 20260902223355 | 94 | 279 | 1.7 | 6.1 | 0.00 | 0.00 | 0.00 | 56 | 1017.3 |
| 20260902222853 | 94 | 275 | 2.6 | 6.1 | 0.00 | 0.00 | 0.00 | 56 | 1017.3 |
| 20260902222354 | 94 | 266 | 1.7 | 5.2 | 0.00 | 0.00 | 0.00 | 55 | 1017.2 |
| 20260902221853 | 94 | 275 | 2.6 | 5.2 | 0.00 | 0.00 | 0.00 | 56 | 1017.2 |
| 20260902221349 | 94 | 314 | 2.6 | 5.2 | 0.00 | 0.00 | 0.00 | 58 | 1017.2 |
| 20260902220850 | 94 | 267 | 2.6 | 6.1 | 0.00 | 0.00 | 0.00 | 57 | 1017.3 |
| 20260902220348 | 94 | 286 | 3.5 | 7.0 | 0.00 | 0.00 | 0.00 | 56 | 1017.3 |
| 20260902215848 | 94 | 266 | 2.6 | 7.0 | 0.00 | 0.00 | 0.00 | 58 | 1017.2 |
| 20260902215349 | 94 | 267 | 2.6 | 5.2 | 0.00 | 0.00 | 0.00 | 57 | 1017.4 |
| 20260902215118 | 95 | 149 | 2.6 | 5.2 | 0.00 | 0.00 | 0.00 | 56 | 1017.4 |
| 20260902214349 | 95 | 285 | 1.7 | 5.2 | 0.00 | 0.00 | 0.00 | 55 | 1017.5 |
| 20260902213849 | 95 | 213 | 1.7 | 4.3 | 0.00 | 0.00 | 0.00 | 56 | 1017.4 |
| 20260902213349 | 95 | 257 | 1.7 | 5.2 | 0.00 | 0.00 | 0.00 | 57 | 1017.3 |
| 20260902212850 | 94 | 314 | 2.6 | 5.2 | 0.00 | 0.00 | 0.00 | 56 | 1017.3 |
| 20260902212350 | 94 | 279 | 3.5 | 7.0 | 0.00 | 0.00 | 0.00 | 55 | 1017.4 |
| 20260902211850 | 94 | 286 | 3.5 | 7.0 | 0.00 | 0.00 | 0.00 | 56 | 1017.4 |
| 20260902211614 | 94 | 297 | 2.6 | 5.2 | 0.00 | 0.00 | 0.00 | 56 | 1017.4 |
| 20260902211114 | 94 | 268 | 2.6 | 5.2 | 0.00 | 0.00 | 0.00 | 57 | 1017.4 |
| 20260902210344 | 94 | 270 | 3.5 | 7.8 | 0.00 | 0.00 | 0.00 | 57 | 1017.6 |
| 20260902205843 | 93 | 277 | 4.3 | 7.8 | 0.00 | 0.00 | 0.00 | 57 | 1017.5 |
| 20260902205344 | 94 | 283 | 3.5 | 6.1 | 0.00 | 0.00 | 0.00 | 56 | 1017.5 |
| 20260902205110 | 94 | 277 | 3.5 | 7.8 | 0.00 | 0.00 | 0.00 | 57 | 1017.7 |
| 20260902204344 | 95 | 205 | 3.5 | 7.8 | 0.00 | 0.00 | 0.00 | 55 | 1017.7 |
| 20260902203844 | 95 | 278 | 2.6 | 6.1 | 0.00 | 0.00 | 0.00 | 57 | 1017.7 |
| 20260902203613 | 95 | 273 | 2.6 | 6.1 | 0.00 | 0.00 | 0.00 | 55 | 1017.7 |
| 20260902202844 | 95 | 271 | 2.6 | 6.1 | 0.00 | 0.00 | 0.00 | 55 | 1017.8 |
| 20260902202345 | 94 | 262 | 3.5 | 7.0 | 0.00 | 0.00 | 0.00 | 56 | 1017.7 |
| 20260902202329 | 94 | 285 | 3.5 | 7.0 | 0.00 | 0.00 | 0.00 | 56 | 1017.8 |
| 20260902201343 | 94 | 296 | 3.5 | 7.0 | 0.00 | 0.00 | 0.00 | 55 | 1017.8 |
| 20260902201101 | 94 | 192 | 2.6 | 6.1 | 0.00 | 0.00 | 0.00 | 54 | 1017.8 |
| 20260902200341 | 95 | 275 | 3.5 | 7.0 | 0.00 | 0.00 | 0.00 | 55 | 1017.8 |
| 20260902195840 | 95 | 265 | 3.5 | 7.0 | 0.00 | 0.00 | 0.00 | 55 | 1018.0 |
| 20260902195339 | 95 | 308 | 2.6 | 5.2 | 0.00 | 0.00 | 0.00 | 53 | 1018.0 |
| 20260902194839 | 94 | 283 | 3.5 | 5.2 | 0.00 | 0.00 | 0.00 | 55 | 1017.7 |
| 20260902194339 | 95 | 271 | 2.6 | 5.2 | 0.00 | 0.00 | 0.00 | 55 | 1018.0 |
| 20260902194058 | 95 | 278 | 2.6 | 5.2 | 0.00 | 0.00 | 0.00 | 54 | 1018.2 |
| 20260902193339 | 94 | 274 | 2.6 | 5.2 | 0.00 | 0.00 | 0.00 | 55 | 1018.0 |
| 20260902192839 | 95 | 231 | 2.6 | 5.2 | 0.00 | 0.00 | 0.00 | 55 | 1018.1 |
| 20260902192338 | 95 | 156 | 1.7 | 5.2 | 0.00 | 0.00 | 0.00 | 53 | 1018.2 |
| 20260902191840 | 94 | 252 | 1.7 | 4.3 | 0.00 | 0.00 | 0.00 | 56 | 1018.3 |
| 20260902191340 | 94 | 273 | 2.6 | 5.2 | 0.00 | 0.00 | 0.00 | 54 | 1018.2 |
| 20260902190839 | 94 | 269 | 3.5 | 6.1 | 0.00 | 0.00 | 0.00 | 56 | 1018.4 |
| 20260902190339 | 93 | 281 | 3.5 | 6.1 | 0.00 | 0.00 | 0.00 | 58 | 1018.1 |
| 20260902185838 | 94 | 255 | 3.5 | 7.8 | 0.00 | 0.00 | 0.00 | 54 | 1018.5 |
| 20260902185337 | 94 | 267 | 3.5 | 7.8 | 0.00 | 0.00 | 0.00 | 55 | 1018.2 |
| 20260902184839 | 95 | 302 | 3.5 | 7.0 | 0.00 | 0.00 | 0.00 | 53 | 1018.6 |
| 20260902184337 | 95 | 272 | 2.6 | 7.0 | 0.00 | 0.00 | 0.00 | 53 | 1018.7 |
| 20260902184328 | 94 | 123 | 2.6 | 7.0 | 0.00 | 0.00 | 0.00 | 57 | 1018.5 |
| 20260902183606 | 94 | 302 | 2.6 | 7.0 | 0.00 | 0.00 | 0.00 | 57 | 1018.4 |
| 20260902182839 | 94 | 223 | 2.6 | 7.8 | 0.00 | 0.00 | 0.00 | 57 | 1018.6 |
| 20260902182340 | 94 | 241 | 3.5 | 7.8 | 0.00 | 0.00 | 0.00 | 56 | 1018.6 |
| 20260902181838 | 94 | 282 | 3.5 | 7.8 | 0.00 | 0.00 | 0.00 | 55 | 1018.6 |
| 20260902181557 | 94 | 295 | 2.6 | 6.1 | 0.00 | 0.00 | 0.00 | 60 | 1018.6 |
| 20260902180838 | 94 | 331 | 1.7 | 5.2 | 0.00 | 0.00 | 0.00 | 58 | 1018.5 |
| 20260902180338 | 93 | 255 | 2.6 | 6.1 | 0.00 | 0.00 | 0.00 | 60 | 1018.5 |
| 20260902175837 | 93 | 282 | 3.5 | 7.0 | 0.00 | 0.00 | 0.00 | 59 | 1018.6 |
| 20260902175338 | 94 | 275 | 2.6 | 7.0 | 0.00 | 0.00 | 0.00 | 59 | 1018.7 |
| 20260902174838 | 94 | 308 | 2.6 | 5.2 | 0.00 | 0.00 | 0.00 | 60 | 1018.8 |
| 20260902174338 | 93 | 300 | 1.7 | 5.2 | 0.00 | 0.00 | 0.00 | 59 | 1018.6 |
| 20260902174106 | 92 | 283 | 1.7 | 4.3 | 0.00 | 0.00 | 0.00 | 63 | 1018.7 |
| 20260902173559 | 92 | 42 | 2.6 | 4.3 | 0.00 | 0.00 | 0.00 | 60 | 1018.9 |
| 20260902172838 | 92 | 260 | 2.6 | 5.2 | 0.00 | 0.00 | 0.00 | 61 | 1018.9 |
| 20260902172338 | 91 | 300 | 3.5 | 7.8 | 0.00 | 0.00 | 0.00 | 61 | 1018.9 |
| 20260902171838 | 91 | 277 | 3.5 | 7.8 | 0.00 | 0.00 | 0.00 | 62 | 1018.8 |
| 20260902171338 | 92 | 294 | 3.5 | 7.8 | 0.00 | 0.00 | 0.00 | 61 | 1019.0 |
| 20260902171317 | 92 | 283 | 3.5 | 7.0 | 0.00 | 0.00 | 0.00 | 61 | 1018.9 |
| 20260902170335 | 92 | 301 | 3.5 | 7.0 | 0.00 | 0.00 | 0.00 | 60 | 1019.0 |
| 20260902165835 | 92 | 273 | 2.6 | 6.1 | 0.00 | 0.00 | 0.00 | 62 | 1019.0 |
| 20260902165335 | 91 | 299 | 3.5 | 6.1 | 0.00 | 0.00 | 0.00 | 63 | 1018.9 |
| 20260902164834 | 91 | 260 | 3.5 | 6.1 | 0.00 | 0.00 | 0.00 | 64 | 1019.0 |
| 20260902164334 | 91 | 173 | 2.6 | 6.1 | 0.00 | 0.00 | 0.00 | 62 | 1018.9 |
| 20260902163834 | 91 | 229 | 3.5 | 6.1 | 0.00 | 0.00 | 0.00 | 63 | 1019.0 |
| 20260902163334 | 91 | 281 | 3.5 | 6.1 | 0.00 | 0.00 | 0.00 | 62 | 1019.0 |
| 20260902162834 | 91 | 295 | 3.5 | 5.2 | 0.00 | 0.00 | 0.00 | 61 | 1019.1 |
| 20260902162334 | 91 | 317 | 2.6 | 5.2 | 0.00 | 0.00 | 0.00 | 64 | 1019.1 |
| 20260902161835 | 91 | 269 | 2.6 | 7.0 | 0.00 | 0.00 | 0.00 | 64 | 1019.1 |
| 20260902161555 | 90 | 196 | 2.6 | 7.0 | 0.00 | 0.00 | 0.00 | 69 | 1018.9 |
| 20260902161058 | 91 | 285 | 2.6 | 4.3 | 0.00 | 0.00 | 0.00 | 63 | 1019.0 |
| 20260902160328 | 91 | 283 | 1.7 | 4.3 | 0.00 | 0.00 | 0.00 | 63 | 1019.2 |
| 20260902155827 | 91 | 272 | 1.7 | 4.3 | 0.00 | 0.00 | 0.00 | 64 | 1019.1 |
| 20260902155329 | 90 | 300 | 1.7 | 4.3 | 0.00 | 0.00 | 0.00 | 65 | 1019.2 |
| 20260902154829 | 90 | 234 | 2.6 | 3.5 | 0.00 | 0.00 | 0.00 | 68 | 1019.1 |
| 20260902154543 | 90 | 300 | 2.6 | 4.3 | 0.00 | 0.00 | 0.00 | 67 | 1019.2 |
| 20260902153825 | 90 | 294 | 1.7 | 4.3 | 0.00 | 0.00 | 0.00 | 69 | 1019.1 |
| 20260902153548 | 90 | 295 | 1.7 | 2.6 | 0.00 | 0.00 | 0.00 | 65 | 1019.2 |
| 20260902153057 | 90 | 313 | 1.7 | 4.3 | 0.00 | 0.00 | 0.00 | 67 | 1019.2 |
| 20260902152326 | 89 | 284 | 1.7 | 4.3 | 0.00 | 0.00 | 0.00 | 68 | 1019.2 |
| 20260902152042 | 89 | 0 | 1.7 | 5.2 | 0.00 | 0.00 | 0.00 | 67 | 1019.2 |
| 20260902151326 | 88 | 251 | 1.7 | 5.2 | 0.00 | 0.00 | 0.00 | 70 | 1019.2 |
| 20260902150827 | 88 | 283 | 1.7 | 5.2 | 0.00 | 0.00 | 0.00 | 69 | 1019.2 |
| 20260902150325 | 87 | 269 | 1.7 | 5.2 | 0.00 | 0.00 | 0.00 | 68 | 1019.2 |
| 20260902145824 | 87 | 303 | 1.7 | 4.3 | 0.00 | 0.00 | 0.00 | 68 | 1019.2 |
| 20260902145324 | 86 | 189 | 2.6 | 5.2 | 0.00 | 0.00 | 0.00 | 71 | 1019.2 |
| 20260902145310 | 87 | 271 | 2.6 | 5.2 | 0.00 | 0.00 | 0.00 | 70 | 1019.2 |
| 20260902144926 | 86 | 291 | 2.6 | 5.2 | 0.00 | 0.00 | 0.00 | 70 | 1019.3 |
| 20260902143826 | 87 | 261 | 1.7 | 5.2 | 0.00 | 0.00 | 0.00 | 68 | 1019.2 |
| 20260902143325 | 87 | 0 | 1.7 | 4.3 | 0.00 | 0.00 | 0.00 | 70 | 1019.1 |
| 20260902142825 | 86 | 279 | 1.7 | 4.3 | 0.00 | 0.00 | 0.00 | 70 | 1019.1 |
| 20260902142326 | 86 | 218 | 1.7 | 4.3 | 0.00 | 0.00 | 0.00 | 72 | 1019.1 |
| 20260902141825 | 85 | 278 | 1.7 | 4.3 | 0.00 | 0.00 | 0.00 | 73 | 1019.2 |
| 20260902141325 | 85 | 279 | 1.7 | 6.1 | 0.00 | 0.00 | 0.00 | 72 | 1019.2 |
| 20260902140824 | 85 | 269 | 1.7 | 6.1 | 0.00 | 0.00 | 0.00 | 72 | 1019.1 |
| 20260902140325 | 85 | 0 | 2.6 | 5.2 | 0.00 | 0.00 | 0.00 | 73 | 1019.0 |
| 20260902135821 | 85 | 267 | 1.7 | 4.3 | 0.00 | 0.00 | 0.00 | 73 | 1019.1 |
| 20260902135322 | 85 | 281 | 1.7 | 3.5 | 0.00 | 0.00 | 0.00 | 74 | 1019.1 |
| 20260902134821 | 85 | 254 | 1.7 | 3.5 | 0.00 | 0.00 | 0.00 | 73 | 1019.1 |
| 20260902134321 | 85 | 282 | 1.7 | 3.5 | 0.00 | 0.00 | 0.00 | 72 | 1019.1 |
| 20260902134046 | 85 | 282 | 1.7 | 5.2 | 0.00 | 0.00 | 0.00 | 74 | 1019.1 |
| 20260902133321 | 85 | 288 | 1.7 | 5.2 | 0.00 | 0.00 | 0.00 | 72 | 1019.1 |
| 20260902132821 | 86 | 240 | 0.9 | 2.6 | 0.00 | 0.00 | 0.00 | 71 | 1019.1 |
| 20260902132321 | 85 | 0 | 0.9 | 2.6 | 0.00 | 0.00 | 0.00 | 73 | 1019.0 |
| 20260902132044 | 85 | 251 | 0.9 | 2.6 | 0.00 | 0.00 | 0.00 | 72 | 1019.0 |
| 20260902131546 | 85 | 269 | 0.9 | 2.6 | 0.00 | 0.00 | 0.00 | 72 | 1019.1 |
| 20260902130822 | 85 | 295 | 0.9 | 1.7 | 0.00 | 0.00 | 0.00 | 72 | 1019.1 |
| 20260902130320 | 85 | 161 | 0.0 | 1.7 | 0.00 | 0.00 | 0.00 | 71 | 1019.1 |
| 20260902125820 | 85 | 184 | 0.0 | 2.6 | 0.00 | 0.00 | 0.00 | 72 | 1019.2 |
| 20260902125546 | 84 | 289 | 0.0 | 2.6 | 0.00 | 0.00 | 0.00 | 74 | 1019.1 |
| 20260902125047 | 84 | 214 | 0.0 | 0.9 | 0.00 | 0.00 | 0.00 | 73 | 1019.1 |
| 20260902124538 | 83 | 0 | 0.0 | 0.9 | 0.00 | 0.00 | 0.00 | 77 | 1018.9 |
| 20260902123818 | 81 | 0 | 0.0 | 0.9 | 0.00 | 0.00 | 0.00 | 79 | 1018.8 |
| 20260902123317 | 80 | 0 | 0.0 | 0.9 | 0.00 | 0.00 | 0.00 | 78 | 1018.8 |
| 20260902123038 | 78 | 245 | 0.0 | 0.9 | 0.00 | 0.00 | 0.00 | 81 | 1018.4 |
| 20260902122316 | 77 | 0 | 0.0 | 0.0 | 0.00 | 0.00 | 0.00 | 82 | 1018.3 |
| 20260902121816 | 76 | 0 | 0.0 | 0.0 | 0.00 | 0.00 | 0.00 | 85 | 1017.6 |
| 20260902121541 | 74 | 0 | 0.0 | 0.0 | 0.00 | 0.00 | 0.00 | 85 | 1017.1 |
| 20260902120815 | 74 | 0 | 0.0 | 0.0 | 0.00 | 0.00 | 0.00 | 87 | 1016.4 |
| 20260902120316 | 73 | 0 | 0.0 | 0.0 | 0.00 | 0.00 | 0.00 | 87 | 1016.4 |
| 20260902115813 | 73 | 0 | 0.0 | 0.0 | 0.00 | 0.00 | 0.00 | 87 | 1016.2 |
| 20260902115539 | 73 | 0 | 0.0 | 0.9 | 0.00 | 0.00 | 0.00 | 87 | 1016.1 |
| 20260902114805 | 73 | 0 | 0.0 | 0.9 | 0.00 | 0.00 | 0.00 | 87 | 1016.1 |
| 20260902114303 | 73 | 70 | 0.0 | 0.9 | 0.00 | 0.00 | 0.00 | 87 | 1016.0 |
| 20260902113803 | 72 | 82 | 0.0 | 1.7 | 0.00 | 0.00 | 0.00 | 87 | 1015.8 |
| 20260902113526 | 72 | 0 | 0.0 | 1.7 | 0.00 | 0.00 | 0.00 | 87 | 1015.8 |
| 20260902113037 | 72 | 66 | 0.0 | 0.9 | 0.00 | 0.00 | 0.00 | 87 | 1015.8 |
| 20260902112305 | 72 | 0 | 0.0 | 1.7 | 0.00 | 0.00 | 0.00 | 87 | 1015.7 |
| 20260902111752 | 72 | 0 | 0.9 | 1.7 | 0.00 | 0.00 | 0.00 | 87 | 1015.7 |
| 20260902111249 | 72 | 83 | 0.0 | 1.7 | 0.00 | 0.00 | 0.00 | 88 | 1015.6 |
| 20260902111008 | 72 | 0 | 0.0 | 1.7 | 0.00 | 0.00 | 0.00 | 88 | 1015.6 |
| 20260902110249 | 72 | 0 | 0.0 | 0.9 | 0.00 | 0.00 | 0.00 | 88 | 1015.6 |
| 20260902105749 | 72 | 0 | 0.0 | 0.9 | 0.00 | 0.00 | 0.00 | 88 | 1015.6 |
| 20260902105248 | 72 | 0 | 0.0 | 0.9 | 0.00 | 0.00 | 0.00 | 88 | 1015.6 |
| 20260902104959 | 72 | 0 | 0.0 | 0.9 | 0.00 | 0.00 | 0.00 | 88 | 1015.7 |
| 20260902104234 | 72 | 72 | 0.0 | 1.7 | 0.00 | 0.00 | 0.00 | 88 | 1015.7 |
| 20260902103734 | 72 | 0 | 0.0 | 1.7 | 0.00 | 0.00 | 0.00 | 88 | 1015.7 |
| 20260902103234 | 72 | 0 | 0.0 | 0.0 | 0.00 | 0.00 | 0.00 | 88 | 1015.7 |
| 20260902102735 | 72 | 0 | 0.0 | 0.9 | 0.00 | 0.00 | 0.00 | 88 | 1015.7 |
| 20260902102453 | 72 | 0 | 0.0 | 0.9 | 0.00 | 0.00 | 0.00 | 88 | 1015.6 |
| 20260902101732 | 72 | 0 | 0.0 | 0.9 | 0.00 | 0.00 | 0.00 | 88 | 1015.6 |
| 20260902101226 | 72 | 0 | 0.0 | 0.9 | 0.00 | 0.00 | 0.00 | 88 | 1015.6 |
| 20260902100726 | 72 | 0 | 0.0 | 1.7 | 0.00 | 0.00 | 0.00 | 88 | 1015.7 |
| 20260902100221 | 72 | 0 | 0.0 | 1.7 | 0.00 | 0.00 | 0.00 | 88 | 1015.6 |
| 20260902095940 | 72 | 74 | 0.0 | 1.7 | 0.00 | 0.00 | 0.00 | 88 | 1015.5 |
| 20260902095219 | 71 | 74 | 0.0 | 0.9 | 0.00 | 0.00 | 0.00 | 88 | 1015.5 |
| 20260902094720 | 71 | 0 | 0.0 | 1.7 | 0.00 | 0.00 | 0.00 | 88 | 1015.6 |
| 20260902094438 | 71 | 73 | 0.0 | 1.7 | 0.00 | 0.00 | 0.00 | 88 | 1015.5 |
| 20260902093941 | 71 | 0 | 0.0 | 1.7 | 0.00 | 0.00 | 0.00 | 88 | 1015.5 |
| 20260902093428 | 72 | 0 | 0.0 | 0.9 | 0.00 | 0.00 | 0.00 | 88 | 1015.5 |
| 20260902093315 | 72 | 0 | 0.0 | 0.9 | 0.00 | 0.00 | 0.00 | 88 | 1015.5 |
| 20260902092218 | 72 | 0 | 0.0 | 0.0 | 0.00 | 0.00 | 0.00 | 87 | 1015.5 |
| 20260902091719 | 72 | 0 | 0.0 | 0.9 | 0.00 | 0.00 | 0.00 | 87 | 1015.5 |
| 20260902091220 | 72 | 0 | 0.0 | 0.9 | 0.00 | 0.00 | 0.00 | 87 | 1015.5 |
| 20260902090715 | 72 | 0 | 0.0 | 0.9 | 0.00 | 0.00 | 0.00 | 87 | 1015.5 |
| 20260902090652 | 72 | 0 | 0.0 | 1.7 | 0.00 | 0.00 | 0.00 | 87 | 1015.4 |
| 20260902085930 | 72 | 0 | 0.9 | 1.7 | 0.00 | 0.00 | 0.00 | 87 | 1015.4 |
| 20260902085206 | 72 | 75 | 0.9 | 1.7 | 0.00 | 0.00 | 0.00 | 87 | 1015.4 |
| 20260902084707 | 72 | 76 | 0.9 | 1.7 | 0.00 | 0.00 | 0.00 | 87 | 1015.4 |
| 20260902084205 | 72 | 68 | 0.9 | 1.7 | 0.00 | 0.00 | 0.00 | 87 | 1015.3 |
| 20260902083709 | 72 | 172 | 0.9 | 1.7 | 0.00 | 0.00 | 0.00 | 87 | 1015.2 |
| 20260902083154 | 72 | 65 | 0.9 | 1.7 | 0.00 | 0.00 | 0.00 | 87 | 1015.2 |
| 20260902082652 | 72 | 74 | 0.9 | 1.7 | 0.00 | 0.00 | 0.00 | 87 | 1015.2 |
| 20260902082402 | 72 | 0 | 0.9 | 1.7 | 0.00 | 0.00 | 0.00 | 87 | 1015.3 |
| 20260902081637 | 73 | 47 | 0.9 | 1.7 | 0.00 | 0.00 | 0.00 | 87 | 1015.3 |
| 20260902081134 | 73 | 72 | 0.9 | 1.7 | 0.00 | 0.00 | 0.00 | 86 | 1015.3 |
| 20260902080636 | 73 | 55 | 1.7 | 1.7 | 0.00 | 0.00 | 0.00 | 86 | 1015.2 |
| 20260902080134 | 73 | 84 | 1.7 | 1.7 | 0.00 | 0.00 | 0.00 | 86 | 1015.3 |
| 20260902075625 | 73 | 79 | 0.9 | 1.7 | 0.00 | 0.00 | 0.00 | 86 | 1015.3 |
| 20260902075344 | 73 | 0 | 0.9 | 1.7 | 0.00 | 0.00 | 0.00 | 86 | 1015.3 |
| 20260902074625 | 73 | 77 | 0.9 | 1.7 | 0.00 | 0.00 | 0.00 | 86 | 1015.3 |
| 20260902074124 | 73 | 83 | 0.9 | 2.6 | 0.00 | 0.00 | 0.00 | 86 | 1015.3 |
| 20260902073623 | 73 | 78 | 0.9 | 2.6 | 0.00 | 0.00 | 0.00 | 86 | 1015.3 |
| 20260902073123 | 73 | 91 | 0.9 | 1.7 | 0.00 | 0.00 | 0.00 | 86 | 1015.3 |
| 20260902072623 | 73 | 89 | 0.9 | 1.7 | 0.00 | 0.00 | 0.00 | 86 | 1015.3 |
| 20260902072123 | 73 | 72 | 0.9 | 1.7 | 0.00 | 0.00 | 0.00 | 86 | 1015.3 |
| 20260902071621 | 73 | 59 | 0.9 | 1.7 | 0.00 | 0.00 | 0.00 | 86 | 1015.3 |
| 20260902071122 | 73 | 82 | 0.9 | 1.7 | 0.00 | 0.00 | 0.00 | 86 | 1015.3 |
| 20260902070621 | 73 | 71 | 0.9 | 1.7 | 0.00 | 0.00 | 0.00 | 86 | 1015.2 |
| 20260902070120 | 73 | 69 | 0.0 | 1.7 | 0.00 | 0.00 | 0.00 | 86 | 1015.2 |
| 20260902065841 | 73 | 0 | 0.9 | 1.7 | 0.00 | 0.00 | 0.00 | 86 | 1015.3 |
| 20260902065121 | 73 | 77 | 0.9 | 1.7 | 0.00 | 0.00 | 0.00 | 86 | 1015.3 |
| 20260902065057 | 73 | 78 | 0.9 | 1.7 | 0.00 | 0.00 | 0.00 | 86 | 1015.3 |
| 20260902064121 | 73 | 0 | 0.9 | 1.7 | 0.00 | 0.00 | 0.00 | 86 | 1015.3 |
| 20260902063615 | 73 | 88 | 0.9 | 1.7 | 0.00 | 0.00 | 0.00 | 86 | 1015.3 |
| 20260902063114 | 73 | 83 | 0.9 | 1.7 | 0.00 | 0.00 | 0.00 | 86 | 1015.4 |
| 20260902062613 | 73 | 82 | 0.9 | 1.7 | 0.00 | 0.00 | 0.00 | 86 | 1015.4 |
| 20260902062112 | 74 | 79 | 0.9 | 1.7 | 0.00 | 0.00 | 0.00 | 85 | 1015.6 |
| 20260902061606 | 74 | 73 | 0.9 | 1.7 | 0.00 | 0.00 | 0.00 | 85 | 1015.5 |
| 20260902061320 | 74 | 81 | 0.9 | 1.7 | 0.00 | 0.00 | 0.00 | 85 | 1015.6 |
| 20260902060553 | 74 | 61 | 0.9 | 1.7 | 0.00 | 0.00 | 0.00 | 85 | 1015.6 |
| 20260902060054 | 74 | 66 | 0.9 | 1.7 | 0.00 | 0.00 | 0.00 | 85 | 1015.6 |
| 20260902055554 | 74 | 68 | 0.9 | 1.7 | 0.00 | 0.00 | 0.00 | 85 | 1015.6 |
| 20260902055055 | 74 | 76 | 0.9 | 1.7 | 0.00 | 0.00 | 0.00 | 85 | 1015.7 |
| 20260902054817 | 74 | 69 | 0.9 | 1.7 | 0.00 | 0.00 | 0.00 | 85 | 1015.8 |
| 20260902054054 | 74 | 70 | 0.9 | 1.7 | 0.00 | 0.00 | 0.00 | 85 | 1015.8 |
| 20260902053554 | 74 | 67 | 0.9 | 1.7 | 0.00 | 0.00 | 0.00 | 85 | 1016.0 |
| 20260902053055 | 74 | 0 | 0.9 | 1.7 | 0.00 | 0.00 | 0.00 | 85 | 1016.0 |
| 20260902052540 | 74 | 68 | 0.9 | 1.7 | 0.00 | 0.00 | 0.00 | 84 | 1016.0 |
| 20260902052041 | 74 | 0 | 0.0 | 1.7 | 0.00 | 0.00 | 0.00 | 84 | 1016.1 |
| 20260902051753 | 74 | 76 | 0.0 | 1.7 | 0.00 | 0.00 | 0.00 | 84 | 1016.2 |
| 20260902051258 | 74 | 0 | 0.0 | 1.7 | 0.00 | 0.00 | 0.00 | 84 | 1016.2 |
| 20260902050529 | 75 | 75 | 0.9 | 1.7 | 0.00 | 0.00 | 0.00 | 84 | 1016.2 |
| 20260902050028 | 75 | 79 | 0.0 | 1.7 | 0.00 | 0.00 | 0.00 | 84 | 1016.2 |
| 20260902045526 | 75 | 0 | 0.9 | 2.6 | 0.00 | 0.00 | 0.00 | 84 | 1016.4 |
| 20260902045028 | 75 | 70 | 0.9 | 2.6 | 0.00 | 0.00 | 0.00 | 84 | 1016.4 |
| 20260902044750 | 75 | 70 | 0.0 | 1.7 | 0.00 | 0.00 | 0.00 | 84 | 1016.4 |
| 20260902044026 | 75 | 0 | 0.0 | 1.7 | 0.00 | 0.00 | 0.00 | 83 | 1016.5 |
| 20260902043750 | 75 | 0 | 0.9 | 1.7 | 0.00 | 0.00 | 0.00 | 83 | 1016.6 |
| 20260902043020 | 75 | 74 | 0.9 | 1.7 | 0.00 | 0.00 | 0.00 | 83 | 1016.6 |
| 20260902042512 | 75 | 63 | 0.9 | 1.7 | 0.00 | 0.00 | 0.00 | 83 | 1016.7 |
| 20260902042010 | 75 | 0 | 0.9 | 1.7 | 0.00 | 0.00 | 0.00 | 83 | 1016.7 |
| 20260902041512 | 76 | 0 | 0.9 | 1.7 | 0.00 | 0.00 | 0.00 | 83 | 1016.8 |
| 20260902040957 | 76 | 61 | 0.9 | 1.7 | 0.00 | 0.00 | 0.00 | 83 | 1016.9 |
| 20260902040457 | 76 | 82 | 0.9 | 1.7 | 0.00 | 0.00 | 0.00 | 83 | 1016.9 |
| 20260902040212 | 76 | 78 | 0.9 | 1.7 | 0.00 | 0.00 | 0.00 | 83 | 1017.0 |
| 20260902035457 | 76 | 72 | 0.9 | 1.7 | 0.00 | 0.00 | 0.00 | 82 | 1017.0 |
| 20260902034955 | 76 | 74 | 0.9 | 1.7 | 0.00 | 0.00 | 0.00 | 82 | 1017.1 |
| 20260902034719 | 76 | 67 | 0.9 | 1.7 | 0.00 | 0.00 | 0.00 | 82 | 1017.1 |
| 20260902033956 | 76 | 0 | 0.0 | 1.7 | 0.00 | 0.00 | 0.00 | 82 | 1017.2 |
| 20260902033456 | 76 | 73 | 0.0 | 0.9 | 0.00 | 0.00 | 0.00 | 82 | 1017.3 |
| 20260902032955 | 77 | 0 | 0.0 | 1.7 | 0.00 | 0.00 | 0.00 | 81 | 1017.3 |
| 20260902032724 | 77 | 0 | 0.9 | 1.7 | 0.00 | 0.00 | 0.00 | 81 | 1017.3 |
| 20260902031948 | 77 | 59 | 0.0 | 1.7 | 0.00 | 0.00 | 0.00 | 81 | 1017.3 |
| 20260902031659 | 77 | 54 | 0.0 | 1.7 | 0.00 | 0.00 | 0.00 | 81 | 1017.2 |
| 20260902030942 | 77 | 0 | 0.0 | 1.7 | 0.00 | 0.00 | 0.00 | 81 | 1017.3 |
| 20260902030442 | 77 | 0 | 0.9 | 1.7 | 0.00 | 0.00 | 0.00 | 81 | 1017.3 |
| 20260902025941 | 77 | 59 | 0.0 | 1.7 | 0.00 | 0.00 | 0.00 | 81 | 1017.3 |
| 20260902025443 | 77 | 0 | 0.0 | 0.9 | 0.00 | 0.00 | 0.00 | 81 | 1017.2 |
| 20260902024942 | 77 | 0 | 0.0 | 0.9 | 0.00 | 0.00 | 0.00 | 81 | 1017.2 |
| 20260902024442 | 77 | 0 | 0.0 | 1.7 | 0.00 | 0.00 | 0.00 | 81 | 1017.2 |
| 20260902023941 | 77 | 0 | 0.0 | 1.7 | 0.00 | 0.00 | 0.00 | 81 | 1017.2 |
| 20260902023442 | 77 | 68 | 0.0 | 1.7 | 0.00 | 0.00 | 0.00 | 81 | 1017.3 |
| 20260902022936 | 77 | 0 | 0.0 | 1.7 | 0.00 | 0.00 | 0.00 | 81 | 1017.3 |
| 20260902022437 | 77 | 0 | 0.0 | 1.7 | 0.00 | 0.00 | 0.00 | 81 | 1017.4 |
| 20260902021937 | 77 | 52 | 0.0 | 1.7 | 0.00 | 0.00 | 0.00 | 81 | 1017.4 |
| 20260902021437 | 77 | 0 | 0.0 | 1.7 | 0.00 | 0.00 | 0.00 | 81 | 1017.4 |
| 20260902020937 | 78 | 81 | 0.0 | 1.7 | 0.00 | 0.00 | 0.00 | 81 | 1017.4 |
| 20260902020437 | 78 | 0 | 0.0 | 1.7 | 0.00 | 0.00 | 0.00 | 80 | 1017.4 |
| 20260902015939 | 78 | 0 | 0.0 | 1.7 | 0.00 | 0.00 | 0.00 | 81 | 1017.4 |
| 20260902015438 | 78 | 0 | 0.0 | 1.7 | 0.00 | 0.00 | 0.00 | 80 | 1017.4 |
| 20260902014938 | 78 | 0 | 0.0 | 1.7 | 0.00 | 0.00 | 0.00 | 80 | 1017.4 |
| 20260902014653 | 78 | 91 | 0.0 | 1.7 | 0.00 | 0.00 | 0.00 | 79 | 1017.4 |
| 20260902013933 | 78 | 0 | 0.0 | 1.7 | 0.00 | 0.00 | 0.00 | 79 | 1017.5 |
| 20260902013434 | 79 | 58 | 0.0 | 1.7 | 0.00 | 0.00 | 0.00 | 79 | 1017.5 |
| 20260902013153 | 79 | 14 | 0.0 | 1.7 | 0.00 | 0.00 | 0.00 | 80 | 1017.4 |
| 20260902012433 | 79 | 356 | 0.0 | 1.7 | 0.00 | 0.00 | 0.00 | 79 | 1017.3 |
| 20260902011933 | 80 | 0 | 0.0 | 1.7 | 0.00 | 0.00 | 0.00 | 78 | 1017.3 |
| 20260902011433 | 80 | 0 | 0.0 | 1.7 | 0.00 | 0.00 | 0.00 | 77 | 1017.3 |
| 20260902010932 | 80 | 341 | 0.0 | 1.7 | 0.00 | 0.00 | 0.00 | 77 | 1017.4 |
| 20260902010433 | 81 | 0 | 0.0 | 1.7 | 0.00 | 0.00 | 0.00 | 76 | 1017.4 |
| 20260902005932 | 81 | 0 | 0.0 | 1.7 | 0.00 | 0.00 | 0.00 | 76 | 1017.3 |
| 20260902005432 | 81 | 0 | 0.0 | 0.9 | 0.00 | 0.00 | 0.00 | 76 | 1017.3 |
| 20260902004933 | 81 | 0 | 0.0 | 0.9 | 0.00 | 0.00 | 0.00 | 75 | 1017.3 |
| 20260902004433 | 82 | 0 | 0.0 | 0.0 | 0.00 | 0.00 | 0.00 | 74 | 1017.3 |
| 20260902003928 | 82 | 0 | 0.0 | 0.0 | 0.00 | 0.00 | 0.00 | 74 | 1017.3 |
| 20260902003918 | 82 | 0 | 0.0 | 0.9 | 0.00 | 0.00 | 0.00 | 74 | 1017.3 |
| 20260902002929 | 82 | 0 | 0.0 | 0.9 | 0.00 | 0.00 | 0.00 | 73 | 1017.4 |
| 20260902002429 | 82 | 0 | 0.0 | 0.9 | 0.00 | 0.00 | 0.00 | 73 | 1017.4 |
| 20260902001929 | 82 | 0 | 0.0 | 0.9 | 0.00 | 0.00 | 0.00 | 73 | 1017.4 |
| 20260902001429 | 83 | 318 | 0.0 | 0.9 | 0.00 | 0.00 | 0.00 | 74 | 1017.4 |
| 20260902000929 | 83 | 322 | 0.0 | 0.9 | 0.00 | 0.00 | 0.00 | 73 | 1017.4 |
| 20260902000429 | 84 | 0 | 0.0 | 0.9 | 0.00 | 0.00 | 0.00 | 73 | 1017.5 |
| 20260901235928 | 85 | 306 | 0.0 | 1.7 | 0.00 | 0.00 | 0.00 | 72 | 1017.5 |
| 20260901235433 | 85 | 332 | 0.0 | 1.7 | 0.00 | 0.00 | 0.00 | 72 | 1017.5 |
| 20260901234930 | 86 | 0 | 0.0 | 1.7 | 0.00 | 0.00 | 0.00 | 70 | 1017.5 |
| 20260901234431 | 86 | 0 | 0.9 | 1.7 | 0.00 | 0.00 | 0.00 | 69 | 1017.6 |
| 20260901233930 | 87 | 345 | 0.9 | 1.7 | 0.00 | 0.00 | 0.00 | 68 | 1017.6 |
| 20260901233429 | 87 | 308 | 0.9 | 1.7 | 0.00 | 0.00 | 0.00 | 65 | 1017.7 |
| 20260901232929 | 88 | 304 | 0.9 | 1.7 | 0.00 | 0.00 | 0.00 | 64 | 1017.7 |
| 20260901232431 | 88 | 292 | 0.9 | 1.7 | 0.00 | 0.00 | 0.00 | 64 | 1017.7 |
| 20260901231929 | 89 | 324 | 0.9 | 1.7 | 0.00 | 0.00 | 0.00 | 65 | 1017.6 |